www.pogodaiklimat.ru

Погода и климат >> Архив погоды >> Канада >> Vancouver


АРХИВ ПОГОДЫ в Vancouver

Время (UTC), дата Ветер
(напр.,м/с)
 
Видим.   Явления Облачность Т
(С)
Тd
(С)
f
(%)
Тe
(С)
Тes
(С)
Комфортность P
(гПа)
Po
(гПа)
Тmin
(С)
Tmax
(С)
R
(мм)
R24
(мм)
S
(см)
03 15.09 СЗ 5 45 км ясно +15.1 +9.1 67 +14 +14 по сезону 1014.7 1014.2
06 15.09 СЗ 3 45 км ясно +11.9 +11.2 95 +10 +10 прохладно 1015.6 1015.1 +8.7 +19.7 201
09 15.09 Ю 1 45 км ясно +12.3 +8.6 78 +12 +12 по сезону 1017.1 1016.6
12 15.09 С 2 45 км ясно +9.8 +5.5 75 +9 +9 по сезону 1017.9 1017.4 +7.6 +19.7
15 15.09 ЮВ 1 45 км ясно +12.7 +7.8 72 +13 +13 по сезону 1018.9 1018.4
18 15.09 ЮЗ 3 45 км 3/0
[Ci fib]
+18.1 +9.5 57 +18 +24 тепло 1019.1 1018.6 +7.6 +18.5
21 15.09 З 3 45 км 6/0
[]
+19.9 +10.4 54 +22 +28 комфорт 1018.3 1017.8
00 16.09 СЗ 2 60 км 6/0
[Ac lent Cs]
+19.4 +9.5 53 +21 +24 комфорт 1016.9 1016.4 +7.6 +21.1
03 16.09 С 1 45 км 9/0
[]
+15.5 +10.6 73 +16 +16 по сезону 1016.0 1015.5
06 16.09 ЮВ 3 45 км 8/0
[Ci fib]
+13.6 +7.8 68 +13 +13 по сезону 1016.1 1015.6 +7.6 +21.1 19
09 16.09 В 2 30 км 9/0
[]
+12.0 +6.2 68 +12 +12 по сезону 1016.2 1015.7
12 16.09 В 4 30 км 10/0
[Cs]
+12.4 +6.5 67 +11 +11 по сезону 1016.4 1015.9 +11.5 +21.1
15 16.09 В 4 45 км 8/0
[]
+12.8 +7.5 70 +11 +11 по сезону 1017.2 1016.7
18 16.09 В 2 45 км 5/0
[Cs]
+19.6 +6.9 44 +21 +27 комфорт 1017.0 1016.5 +10.8 +19.9
21 16.09 ЮЗ 3 40 км 8/8 300 м
[]
+19.4 +9.4 52 +21 +22 комфорт 1015.4 1014.9
00 17.09 ЮЗ 2 30 км мгла 8/1 600 м
[Cu hum Ac As Cc]
+20.5 +6.9 41 +22 +24 комфорт 1013.6 1013.1 +10.8 +21.5
03 17.09 С 2 30 км 5/0
[]
+16.8 +9.4 62 +17 +17 тепло 1012.1 1011.6
06 17.09 В 4 30 км 4/0
[Ci fib]
+15.8 +6.2 53 +15 +15 тепло 1011.6 1011.1 +10.8 +21.5 21
09 17.09 В 5 30 км 8/0
[]
+12.0 +7.0 71 +10 +10 по сезону 1010.8 1010.3
12 17.09 В 4 30 км 10/0
[Ac As Cs]
+12.8 +6.8 67 +11 +11 по сезону 1009.5 1009.0 +11.5 +21.5
15 17.09 В 5 20 км 8/0
[]
+13.4 +6.7 64 +12 +12 по сезону 1008.4 1007.9
18 17.09 В 6 19 км мгла 10/0
[Ac As]
+14.9 +9.9 72 +13 +14 прохладно 1008.2 1007.7 +11.5 +16.3
21 17.09 ЮВ 4 11 км 10/10 600 м
[]
+14.5 +11.6 83 +13 +13 прохладно 1007.0 1006.5
00 18.09 ЮВ 7 9000 м слабый дождь 9/3 300 м
[Sc Ac cast]
+13.7 +12.3 91 +11 +11 холодно 1005.7 1005.2 +11.5 +15.6 2
03 18.09 ЮЗ 6 24 км 3/3 1500 м
[]
+13.6 +9.1 74 +12 +12 прохладно 1005.8 1005.3
06 18.09 З 4 24 км {дождь} 4/0 2000 м
[Ac As Ci fib]
+11.2 +8.0 81 +9 +9 прохладно 1007.7 1007.2 +11.2 +16.3 0.6 1
09 18.09 ЮВ 3 24 км 10/10 600 м
[]
+11.2 +7.5 78 +10 +10 по сезону 1008.0 1007.5
12 18.09 ЮВ 2 24 км в посл. час дождь 10/6 300 м
[Sc Ac As]
+11.0 +9.5 90 +10 +10 по сезону 1007.2 1006.7 +9.6 +16.3 0.0
15 18.09 ЮВ 2 24 км 4/4 300 м
[]
+10.5 +8.4 87 +9 +9 прохладно 1006.9 1006.4
18 18.09 Ю 3 30 км 6/5 600 м
[Cu med, cong Ac As Ci fib]
+13.8 +7.2 64 +13 +15 по сезону 1007.2 1006.7 +9.6 +14.8
21 18.09 ЮВ 6 45 км 9/9 600 м
[]
+14.7 +8.2 65 +13 +13 прохладно 1006.7 1006.2
00 19.09 ЮВ 6 45 км 8/4 600 м
[Cu med, cong Ac As Ci fib]
+16.4 +7.1 54 +15 +16 по сезону 1005.8 1005.3 +9.6 +17.2
03 19.09 В 5 30 км 10/10 600 м
[]
+13.6 +7.2 65 +12 +12 прохладно 1005.1 1004.6
06 19.09 СВ 4 19 км в посл. час ливневой дождь 10/10 600 м
[Cu Sc]
+11.0 +8.7 86 +9 +9 прохладно 1004.9 1004.4 +9.6 +17.2 3 4
09 19.09 В 6 8000 м 10/10 300 м
[]
+10.7 +9.2 90 +7 +7 прохладно 1004.9 1004.4
12 19.09 В 4 12 км слабый дождь {ливн. осадки} 10/10 300 м
[Sc]
+10.5 +9.2 92 +8 +8 по сезону 1005.4 1004.9 +10.3 +17.2 2
15 19.09 С 2 24 км 10/10 200 м
[]
+10.0 +9.3 95 +9 +9 прохладно 1006.5 1006.0
18 19.09 В 4 45 км {ливн. осадки, дождь} 10/8 300 м
[Cu Sc Ac As]
+12.5 +9.1 80 +11 +11 прохладно 1007.4 1006.9 +9.6 +12.7 2
21 19.09 З 4 30 км 10/10 300 м
[]
+12.2 +9.9 86 +10 +10 холодно 1007.2 1006.7
00 20.09 З 3 45 км {ливн. осадки} 4/3 600 м
[Cu Sc Ac trans]
+12.7 +8.9 78 +11 +13 холодно 1006.9 1006.4 +9.6 +14.8 0.0
03 20.09 ЮЗ 2 24 км 10/10 300 м
[]
+12.2 +8.6 79 +12 +12 прохладно 1006.6 1006.1
06 20.09 В 1 9000 м слабый дождь 10/9 600 м
[Sc Ac As]
+11.0 +9.4 90 +11 +11 по сезону 1005.8 1005.3 +9.6 +14.8 1 9
09 20.09 В 4 30 км 9/9 300 м
[]
+10.1 +8.7 91 +8 +8 прохладно 1004.8 1004.3
12 20.09 СВ 3 11 км {дождь} 10/8 200 м
[Sc Ac trans]
+9.9 +8.9 93 +8 +8 по сезону 1004.3 1003.8 +9.3 +14.8 1
15 20.09 С 1 24 км 9/9 300 м
[]
+10.1 +8.7 91 +10 +10 прохладно 1004.8 1004.3
18 20.09 З 5 45 км 5/5 300 м
[Cu med, cong]
+13.4 +9.7 78 +11 +13 прохладно 1005.3 1004.8 +8.4 +13.6
21 20.09 З 8 45 км 4/4 300 м
[]
+14.8 +9.7 71 +13 +13 прохладно 1006.1 1005.6
00 21.09 З 6 45 км 6/1 1000 м
[Cu hum Ac trans Cs]
+14.9 +9.4 70 +13 +14 прохладно 1006.6 1006.1 +8.4 +15.2
03 21.09 З 3 30 км 9/9 1000 м
[]
+13.6 +9.7 77 +13 +13 по сезону 1007.7 1007.2
06 21.09 В 3 30 км в посл. час дождь 10/1 600 м
[Sc Ac As]
+11.8 +9.5 86 +10 +10 по сезону 1009.0 1008.5 +8.4 +15.2 0.2 201
09 21.09 В 3 20 км 9/9 1000 м
[]
+11.8 +9.2 84 +10 +10 по сезону 1010.7 1010.2
12 21.09 штиль 0 30 км 9/0
[Ac As]
+10.5 +8.1 85 +10 +10 по сезону 1011.7 1011.2 +9.8 +15.2
15 21.09 В 2 45 км 4/4 1000 м
[]
+10.8 +8.8 87 +10 +10 прохладно 1013.3 1012.8
18 21.09 ЮЗ 4 45 км 5/1 300 м
[Cu hum Ac trans Cc]
+14.3 +10.5 78 +13 +16 по сезону 1014.1 1013.6 +8.9 +14.6
21 21.09 ЮЗ 4 45 км 6/6 1000 м
[]
+15.9 +9.7 67 +15 +17 по сезону 1014.3 1013.8
00 22.09 ЮЗ 2 45 км 9/1 1000 м
[Cu hum Ac As]
+15.0 +10.3 73 +15 +16 по сезону 1014.8 1014.3 +8.9 +16.1

 

Местоположение метеостанции Vancouver (Канада): широта 49.20 долгота -123.10 высота над уровнем моря 4 м.

В архиве по умолчанию представлена погода в Vancouver за последнюю неделю. Архивные данные за месяц целиком и за предыдущие месяцы, начиная с января 2011 года, Вы можете получить, выбрав интересующий диапазон дат из раскрывающегося списка и нажав кнопку "Ввод!".

Внимание! Время в таблицах - всемирное. Для получения местного времени необходимо прибавить поправку, которая в Vancouver равна -8 ч.

Смотрите также архив погоды в соседних городах и на ближайших метеорологических станциях:

Погода в Vancouver Hillcrest (Канада) (3 км)
Погода в Vancouver Sea Island Ccg (Канада) (7 км)
Погода в Vancouver (aut) (Канада) (11 км)
Погода в West Vancouver Camp (Канада) (14 км)
Погода в Point Atkinson (Канада) (17 км)
Погода в Sand Heads (Канада) (18 км)
Погода в Cypress Bowl South (Канада) (21 км)
Погода в Cypress Bowl North (Канада) (23 км)
Погода в Howe Sound (Канада) (32 км)
Погода в White Rock Campbell (Канада) (35 км)

Пояснения к столбцам:

Ветер - указаны скорость ветра в м/с - средняя за 10 мин, порывы в срок и между сроками (в фигурных скобках) и направление, откуда дует ветер: С - северный, СВ - северо-восточный, В - восточный, ЮВ - юго-восточный, Ю - южный, ЮЗ - юго-западный, З - западный, СЗ - северо-западный.
Видимость - горизонтальная дальность видимости в метрах или километрах. При видимости от 1 до 10 км при отсутствии осадков обычно наблюдается дымка, при ухудшении видимости до 1 км и менее - туман. В сухую погоду видимость может ухудшаться дымом, пылью или мглою.
Явления - указаны атмосферные явления, наблюдавшиеся в срок или в последний час перед сроком; фигурными скобками обозначены явления, наблюдавшиеся между сроками (за 1-3 часа до срока); квадратными скобками обозначены град или гололедные отложения с указанием их диаметра в мм.
Облачность - указаны через наклонную черту общая и нижняя облачность в баллах и высота нижней границы облаков в метрах; квадратными скобками обозначены формы облаков: Ci - перистые, Cs - перисто-слоистые, Cc - перисто-кучевые, Ac - высококучевые, As - высокослоистые, Sc - слоисто-кучевые, Ns - слоисто-дождевые, Cu - кучевые, Cb - кучево-дождевые. Подробнее классификацию облаков см. в Атласе облаков (PDF).
T - Температура воздуха - температура, измеренная на высоте 2 м над землей.
Td - Температура точки росы - температура, при понижении до которой содержащийся в воздухе водяной пар достигнет насыщения.
f - Относительная влажность воздуха - влажноcть воздуха, измеренная на высоте 2 м над землей.
Te - Эффективная температура - температура, которую ощущает одетый по сезону человек в тени. Характеристика душности погоды. При расчете учитывается влияние влажности воздуха и скорости ветра на теплоощущения человека.
Tes - Эффективная температура на солнце - температура, которую ощущает человек, с поправкой на солнечный нагрев. Характеристика знойности погоды. Зависит от высоты солнца над горизонтом, облачности и скорости ветра. Ночью, в пасмурную погоду, а также при ветре 12 м/с и более поправка равна нулю.
P - Атмосферное давление - приведенное к уровню моря атмосферное давление.
Po - Атмосферное давление - измеренное на уровне метеостанции атмосферное давление.
Tmin - Минимальная температура - минимум температуры воздуха на высоте 2 м над землей.
Tmax - Максимальная температура - максимум температуры воздуха на высоте 2 м над землей.
R - Количество осадков - Количество выпавших осадков за период времени, мм. При наведении курсора мыши на число - период времени, за который выпало указанное количество осадков.
R24 - Количество осадков - Количество выпавших осадков за 24 часа, мм.
S - Снежный покров - Высота снежного покрова, см. При наведении курсора мыши на число - состояние снежного покрова и степень покрытия местности в баллах.